星链-31910 (STARLINK-31910 )

导读 | 豆包AI

STARLINK-31910是美国太空探索技术公司(SpaceX)星链计划中的卫星,于2024年5月6日发射入轨,星链计划旨在构建全球卫星互联网星座,为全球多地提供高速互联网接入服务,该卫星加入后进一步扩充了星链星座的规模,助力其全球覆盖与服务能力提升。

基本信息
目录编号:
59664
目录名称:
STARLINK-31910
国际标识:
2024-084L
轨道中心:
EARTH
卫星名称:
星链-31910
卫星全名:
星链-31910 (STARLINK-31910 )
卫星状态:
在轨 (已飞行678 天)
发射日期:
2024-05-06 UTC
国别 :
美国 (US)
星等 :
--
轨道信息
数据来源 国际轨道数据 AOE轨道数据
星历时间 2026-03-15T10:28:42+0800
15小时前
查看轨道信息
2026-03-13T23:00:00+0800
2天前
查看轨道信息
半长轴 6861.114km 6861.189km
偏心率 0.0000909 0.0001484
轨道倾角 42.997° 43.001°
近地点辐角 145.378° 253.651°
升交点赤经 10.998° 19.349°
平近点角 214.713° 247.452°
近地点 482.353km 482.033km
远地点 483.601km 484.071km
周期 94.265分钟 94.267分钟
每日圈数 15.276042 15.275791
详细信息
固有亮度:
5
最大亮度:
1.5
卫星平台:
Starlink v2.0 mini
覆盖范围:
全球
运营商:
太空探索技术公司
运营商所在国:
美国
制造商(研发单位):
太空探索技术公司
制造商所在国:
美国
使用方式:
暂无
卫星简介
星链(Starlink)计划是由太空探索技术公司(SpaceX)提出的一个巨型低轨卫星互联网星座项目,计划在2019年至2024年间在太空搭建由约1.2万颗卫星组成的“星链”网络,其中1584颗将部署在地球上空550千米处的近地轨道,并从2020年开始工作。该卫星仍在工作。
2D轨道图
3D轨道图
轨道高度分析图
轨道倾角分析图
轨道综合分析图
查看轨道综合分析图